Change the Weather History Date:

Sunday, November 10, 2013

  Actual Average (KCIU) Record (KCIU)
Temperature  
Mean Temperature 35 °F -  
Max Temperature 41 °F 40 °F 53 °F (1998)
Min Temperature 29 °F 29 °F 19 °F (1979)
Degree Days  
Heating Degree Days 30    
Moisture  
Dew Point 31 °F    
Average Humidity 77    
Maximum Humidity 94    
Minimum Humidity 62    
Precipitation  
Precipitation 0.00 in - - ()
Sea Level Pressure  
Sea Level Pressure 29.94 in    
Wind  
Wind Speed 10 mph (WNW)    
Max Wind Speed 16 mph    
Max Gust Speed 31 mph    
Visibility 10 miles    
Events Rain    
Averages and records for this station are not official NWS values.
T = Trace of Precipitation, MM = Missing Value Source: NWS Daily Summary

Daily Weather History Graph

Daily Weather History Graph

Search for Another Location

Airport or City:

Trip Planner

Search our weather history database for the weather conditions in past years. The results will help you decide how hot, cold, wet, or windy it might be!

Date:

Astronomy

Nov. 10, 2013 Rise Set
Actual Time 7:28 AM EST 5:08 PM EST
Civil Twilight 6:56 AM EST 5:40 PM EST
Nautical Twilight 6:20 AM EST 6:16 PM EST
Astronomical Twilight 5:45 AM EST 6:51 PM EST
Moon 1:34 PM EST (11/10) No Moon Set
Length of Visible Light 10h 43m
Length of Day
9h 39m
First Quarter, 55% of the Moon is Illuminated
Nov 10
First Quarter
Nov 17
Full
Nov 25
Last Quarter
Dec 2
New
Dec 9
First Quarter

Hourly Weather History & Observations

Time (EST) Temp. Windchill Dew Point Humidity Pressure Visibility Wind Dir Wind Speed Gust Speed Precip Events Conditions
12:15 AM 41.2 °F 35.5 °F 34.5 °F 77% 29.65 in 10.0 mi WSW 9.2 mph 18.4 mph N/A   Overcast
12:36 AM 41.0 °F 34.3 °F 34.7 °F 78% 29.65 in 10.0 mi WSW 11.5 mph 18.4 mph N/A   Overcast
12:55 AM 41.0 °F 35.8 °F 35.1 °F 79% 29.66 in 10.0 mi West 8.1 mph 16.1 mph N/A   Light Drizzle
1:15 AM 40.5 °F 35.1 °F 35.2 °F 82% 29.66 in 10.0 mi West 8.1 mph 20.7 mph N/A   Overcast
1:36 AM 40.5 °F 33.2 °F 35.2 °F 82% 29.67 in 10.0 mi West 12.7 mph 26.5 mph N/A   Overcast
1:55 AM 40.5 °F 34.1 °F 35.2 °F 82% 29.67 in 10.0 mi West 10.4 mph 20.7 mph N/A   Overcast
2:16 AM 40.5 °F 35.1 °F 35.6 °F 83% 29.68 in 10.0 mi West 8.1 mph 19.6 mph N/A   Overcast
2:36 AM 40.3 °F 34.4 °F 35.1 °F 82% 29.68 in 10.0 mi West 9.2 mph 25.3 mph N/A   Overcast
2:55 AM 40.3 °F 33.9 °F 35.2 °F 82% 29.68 in 10.0 mi West 10.4 mph 21.9 mph N/A   Overcast
3:16 AM 40.3 °F 33.4 °F 35.2 °F 82% 29.69 in 10.0 mi West 11.5 mph 18.4 mph N/A   Overcast
3:36 AM 40.1 °F 33.2 °F 35.6 °F 84% 29.69 in 10.0 mi WNW 11.5 mph 23.0 mph N/A   Overcast
3:55 AM 39.7 °F 32.3 °F 35.6 °F 85% 29.70 in 10.0 mi West 12.7 mph 21.9 mph N/A   Overcast
4:16 AM 39.6 °F 32.5 °F 35.4 °F 85% 29.71 in 10.0 mi West 11.5 mph 19.6 mph N/A   Overcast
4:36 AM 39.4 °F 32.3 °F 35.1 °F 84% 29.71 in 10.0 mi West 11.5 mph 19.6 mph N/A   Overcast
4:55 AM 39.2 °F 32.5 °F 35.1 °F 85% 29.73 in 10.0 mi WNW 10.4 mph 20.7 mph N/A Rain Light Rain
5:16 AM 38.8 °F 33.2 °F 35.2 °F 87% 29.73 in 10.0 mi WNW 8.1 mph 24.2 mph N/A Rain Light Rain
5:35 AM 38.3 °F 30.5 °F 35.1 °F 88% 29.74 in 10.0 mi WNW 12.7 mph 20.7 mph N/A Rain Light Rain
5:55 AM 38.1 °F 31.2 °F 35.4 °F 90% 29.76 in 10.0 mi WNW 10.4 mph 18.4 mph N/A   Overcast
6:16 AM 37.6 °F 30.5 °F 35.6 °F 93% 29.77 in 5.0 mi WNW 10.4 mph 19.6 mph N/A   Light Drizzle
6:35 AM 37.4 °F 28.9 °F 34.3 °F 89% 29.78 in 10.0 mi NW 13.8 mph 19.6 mph N/A   Light Drizzle
6:55 AM 36.9 °F 30.1 °F 34.2 °F 90% 29.79 in 10.0 mi WNW 9.2 mph 17.3 mph N/A   Light Drizzle
7:16 AM 36.5 °F 27.8 °F 33.1 °F 87% 29.81 in 10.0 mi NW 13.8 mph 21.9 mph N/A   Mostly Cloudy
7:35 AM 36.7 °F 29.9 °F 32.5 °F 85% 29.83 in 10.0 mi NW 9.2 mph 19.6 mph N/A   Overcast
7:56 AM 36.5 °F 29.2 °F 32.0 °F 84% 29.84 in 10.0 mi NW 10.4 mph 26.5 mph N/A   Overcast
8:16 AM 36.7 °F 29.9 °F 32.0 °F 83% 29.86 in 10.0 mi NW 9.2 mph 24.2 mph N/A   Mostly Cloudy
8:35 AM 36.9 °F 29.1 °F 31.8 °F 82% 29.88 in 10.0 mi NW 11.5 mph 20.7 mph N/A   Mostly Cloudy
8:56 AM 36.9 °F 28.2 °F 31.3 °F 80% 29.89 in 10.0 mi NW 13.8 mph 24.2 mph N/A   Mostly Cloudy
9:16 AM 36.9 °F 28.7 °F 30.7 °F 79% 29.90 in 10.0 mi NW 12.7 mph 23.0 mph N/A   Scattered Clouds
9:35 AM 37.4 °F 28.5 °F 30.4 °F 76% 29.92 in 10.0 mi NW 15.0 mph 25.3 mph N/A   Mostly Cloudy
9:56 AM 37.4 °F 29.3 °F 29.7 °F 74% 29.93 in 10.0 mi NW 12.7 mph 31.1 mph N/A   Mostly Cloudy
10:15 AM 37.8 °F 28.6 °F 29.5 °F 72% 29.95 in 10.0 mi NW 16.1 mph 25.3 mph N/A   Overcast
10:35 AM 38.5 °F 32.1 °F 29.5 °F 70% 29.97 in 10.0 mi NNW 9.2 mph 23.0 mph N/A   Overcast
10:56 AM 38.5 °F 29.9 °F 28.9 °F 69% 29.98 in 10.0 mi NW 15.0 mph 26.5 mph N/A   Mostly Cloudy
11:15 AM 39.9 °F 31.4 °F 29.1 °F 65% 29.99 in 10.0 mi NW 16.1 mph 27.6 mph N/A   Mostly Cloudy
11:35 AM 40.3 °F 33.9 °F 28.4 °F 63% 30.00 in 10.0 mi NNW 10.4 mph 24.2 mph N/A   Scattered Clouds
11:55 AM 39.7 °F 31.5 °F 28.0 °F 63% 30.01 in 10.0 mi NNW 15.0 mph 20.7 mph N/A   Mostly Cloudy
12:15 PM 39.7 °F 32.7 °F 30.0 °F 68% 30.02 in 10.0 mi WNW 11.5 mph 21.9 mph N/A   Overcast
12:36 PM 38.5 °F 31.1 °F 30.2 °F 72% 30.03 in 10.0 mi NW 11.5 mph 23.0 mph N/A   Overcast
12:55 PM 38.5 °F 31.1 °F 30.9 °F 74% 30.03 in 10.0 mi NW 11.5 mph 19.6 mph N/A   Overcast
1:16 PM 38.3 °F 32.5 °F 31.1 °F 75% 30.04 in 10.0 mi NW 8.1 mph 18.4 mph N/A   Overcast
1:36 PM 38.5 °F 32.7 °F 30.4 °F 73% 30.04 in 10.0 mi NW 8.1 mph 16.1 mph N/A   Overcast
1:55 PM 38.8 °F 30.8 °F 28.8 °F 67% 30.05 in 10.0 mi NW 13.8 mph 20.7 mph N/A   Overcast
2:16 PM 39.2 °F 33.0 °F 27.1 °F 62% 30.06 in 10.0 mi NW 9.2 mph 21.9 mph N/A   Overcast
2:35 PM 38.8 °F 32.6 °F 27.0 °F 62% 30.07 in 10.0 mi NW 9.2 mph 24.2 mph N/A   Overcast
2:55 PM 39.2 °F 34.2 °F 27.5 °F 63% 30.07 in 10.0 mi NW 6.9 mph 17.3 mph N/A   Overcast
3:16 PM 39.2 °F 32.0 °F 28.9 °F 67% 30.08 in 10.0 mi WNW 11.5 mph 17.3 mph N/A   Overcast
3:35 PM 38.7 °F 33.6 °F 27.7 °F 65% 30.08 in 10.0 mi NW 6.9 mph 18.4 mph N/A   Overcast
3:56 PM 38.7 °F 31.8 °F 28.2 °F 66% 30.09 in 10.0 mi NW 10.4 mph 24.2 mph N/A   Overcast
4:16 PM 38.3 °F 33.2 °F 27.5 °F 65% 30.10 in 10.0 mi WNW 6.9 mph - N/A   Overcast
4:35 PM 38.3 °F 31.4 °F 29.8 °F 72% 30.11 in 10.0 mi WNW 10.4 mph 18.4 mph N/A   Overcast
4:56 PM 37.2 °F 31.2 °F 31.1 °F 79% 30.11 in 10.0 mi West 8.1 mph - N/A   Overcast
5:15 PM 37.4 °F 32.8 °F 30.9 °F 77% 30.12 in 10.0 mi West 5.8 mph - N/A   Overcast
5:35 PM 38.3 °F 33.2 °F 27.5 °F 65% 30.12 in 10.0 mi West 6.9 mph - N/A   Overcast
5:56 PM 38.3 °F 31.4 °F 27.5 °F 65% 30.13 in 10.0 mi West 10.4 mph 16.1 mph N/A   Overcast
6:15 PM 38.3 °F 30.9 °F 27.0 °F 64% 30.13 in 10.0 mi WNW 11.5 mph - N/A   Overcast
6:36 PM 38.3 °F 32.5 °F 27.3 °F 65% 30.13 in 10.0 mi WNW 8.1 mph 19.6 mph N/A   Overcast
6:56 PM 37.4 °F 32.8 °F 27.7 °F 68% 30.13 in 10.0 mi WNW 5.8 mph - N/A   Overcast
7:15 PM 37.4 °F 33.8 °F 27.5 °F 67% 30.12 in 10.0 mi WNW 4.6 mph - N/A   Overcast
7:36 PM 37.4 °F 32.1 °F 28.4 °F 70% 30.12 in 10.0 mi West 6.9 mph - N/A   Overcast
7:56 PM 37.0 °F 33.3 °F 28.2 °F 70% 30.12 in 10.0 mi West 4.6 mph - N/A   Mostly Cloudy
8:15 PM 35.8 °F - 28.0 °F 73% 30.12 in 10.0 mi Calm Calm - N/A   Scattered Clouds
8:36 PM 36.3 °F - 28.4 °F 73% 30.11 in 10.0 mi Calm Calm - N/A   Mostly Cloudy
8:56 PM 36.3 °F - 28.4 °F 73% 30.10 in 10.0 mi Calm Calm - N/A   Overcast
9:15 PM 34.3 °F - 28.0 °F 78% 30.09 in 10.0 mi Calm Calm - N/A   Scattered Clouds
9:36 PM 32.0 °F 28.7 °F 27.5 °F 83% 30.09 in 10.0 mi South 3.5 mph - N/A   Clear
9:56 PM 32.0 °F - 27.7 °F 84% 30.08 in 10.0 mi Calm Calm - N/A   Clear
10:15 PM 31.1 °F - 28.0 °F 88% 30.07 in 10.0 mi Calm Calm - N/A   Scattered Clouds
10:36 PM 29.8 °F - 28.2 °F 94% 30.06 in 10.0 mi Calm Calm - N/A   Scattered Clouds
10:55 PM 30.2 °F 25.4 °F 28.8 °F 94% 30.04 in 10.0 mi SSE 4.6 mph - N/A   Clear
11:15 PM 34.3 °F 29.2 °F 31.6 °F 90% 30.04 in 10.0 mi South 5.8 mph - N/A   Mostly Cloudy
11:36 PM 37.9 °F 32.1 °F 32.0 °F 79% 30.03 in 10.0 mi South 8.1 mph - N/A   Mostly Cloudy
11:55 PM 38.3 °F 31.9 °F 32.2 °F 79% 30.01 in 10.0 mi South 9.2 mph - N/A   Mostly Cloudy